| time (UTC) | temp F | wind direction | speed knots | gust knots | rain 1hr in | rain 24hr in | rain mn in | humidity % | barometer mb |
| 20260506031013 | 47 | 355 | 0.9 | 7.8 | 0.00 | 0.00 | 0.00 | 83 | 1011.9 |
| 20260506030513 | 47 | 42 | 1.7 | 7.0 | 0.00 | 0.00 | 0.00 | 83 | 1012.0 |
| 20260506030013 | 47 | 33 | 0.9 | 8.7 | 0.00 | 0.00 | 0.00 | 83 | 1012.0 |
| 20260506025013 | 48 | 60 | 5.2 | 9.6 | 0.00 | 0.00 | 0.00 | 83 | 1012.0 |
| 20260506024513 | 48 | 23 | 7.8 | 7.8 | 0.00 | 0.00 | 0.00 | 83 | 1012.0 |
| 20260506023943 | 48 | 40 | 2.6 | 8.7 | 0.00 | 0.00 | 0.00 | 83 | 1012.0 |
| 20260506023513 | 48 | 20 | 4.3 | 10.4 | 0.00 | 0.00 | 0.00 | 83 | 1012.0 |
| 20260506023013 | 48 | 40 | 7.8 | 10.4 | 0.00 | 0.00 | 0.00 | 83 | 1012.0 |
| 20260506022514 | 48 | 51 | 1.7 | 10.4 | 0.00 | 0.00 | 0.00 | 83 | 1012.0 |
| 20260506022013 | 48 | 35 | 4.3 | 10.4 | 0.00 | 0.00 | 0.00 | 83 | 1012.0 |
| 20260506021513 | 48 | 37 | 9.6 | 10.4 | 0.00 | 0.00 | 0.00 | 83 | 1012.0 |
| 20260506021013 | 48 | 28 | 8.7 | 8.7 | 0.00 | 0.00 | 0.00 | 83 | 1012.0 |
| 20260506020013 | 48 | 15 | 7.0 | 7.8 | 0.00 | 0.00 | 0.00 | 83 | 1012.1 |
| 20260506015513 | 49 | 20 | 6.1 | 7.8 | 0.00 | 0.00 | 0.00 | 83 | 1012.2 |
| 20260506014513 | 49 | 26 | 2.6 | 11.3 | 0.00 | 0.00 | 0.00 | 83 | 1012.2 |
| 20260506014013 | 49 | 38 | 7.8 | 11.3 | 0.00 | 0.00 | 0.00 | 83 | 1012.1 |
| 20260506013514 | 49 | 44 | 6.1 | 8.7 | 0.00 | 0.00 | 0.00 | 83 | 1012.1 |
| 20260506012944 | 49 | 28 | 5.2 | 8.7 | 0.00 | 0.00 | 0.00 | 83 | 1012.2 |
| 20260506012513 | 49 | 30 | 0.9 | 9.6 | 0.00 | 0.00 | 0.00 | 82 | 1012.2 |
| 20260506012013 | 49 | 65 | 4.3 | 9.6 | 0.00 | 0.00 | 0.00 | 82 | 1012.2 |
| 20260506011513 | 49 | 13 | 3.5 | 8.7 | 0.00 | 0.00 | 0.00 | 82 | 1012.2 |
| 20260506011013 | 49 | 35 | 3.5 | 7.8 | 0.00 | 0.00 | 0.00 | 81 | 1012.1 |
| 20260506010513 | 49 | 56 | 2.6 | 7.8 | 0.00 | 0.00 | 0.00 | 81 | 1012.2 |
| 20260506010013 | 49 | 47 | 3.5 | 7.8 | 0.00 | 0.00 | 0.00 | 80 | 1012.2 |
| 20260506005513 | 49 | 32 | 2.6 | 7.8 | 0.00 | 0.00 | 0.00 | 80 | 1012.2 |
| 20260506005013 | 50 | 51 | 3.5 | 6.1 | 0.00 | 0.00 | 0.00 | 80 | 1012.2 |
| 20260506004443 | 50 | 41 | 0.9 | 5.2 | 0.00 | 0.00 | 0.00 | 79 | 1012.2 |
| 20260506004013 | 50 | 53 | 0.0 | 5.2 | 0.00 | 0.00 | 0.00 | 79 | 1012.2 |
| 20260506003513 | 50 | 31 | 1.7 | 5.2 | 0.00 | 0.00 | 0.00 | 79 | 1012.2 |
| 20260506003013 | 50 | 52 | 3.5 | 7.0 | 0.00 | 0.00 | 0.00 | 78 | 1012.2 |
| 20260506002513 | 50 | 67 | 3.5 | 7.8 | 0.00 | 0.00 | 0.00 | 78 | 1012.2 |
| 20260506002013 | 50 | 67 | 1.7 | 8.7 | 0.00 | 0.00 | 0.00 | 78 | 1012.2 |
| 20260506001515 | 50 | 47 | 2.6 | 8.7 | 0.00 | 0.00 | 0.00 | 77 | 1012.2 |
| 20260506000513 | 50 | 58 | 4.3 | 9.6 | 0.00 | 0.00 | 0.00 | 77 | 1012.2 |
| 20260506000013 | 51 | 51 | 3.5 | 9.6 | 0.00 | 0.00 | 0.00 | 77 | 1012.1 |
| 20260505235513 | 51 | 51 | 0.0 | 7.8 | 0.00 | 0.00 | 0.00 | 76 | 1012.1 |
| 20260505235013 | 51 | 21 | 2.6 | 7.8 | 0.00 | 0.00 | 0.00 | 76 | 1012.1 |
| 20260505234513 | 51 | 47 | 2.6 | 7.8 | 0.00 | 0.00 | 0.00 | 76 | 1012.2 |
| 20260505234013 | 51 | 54 | 0.9 | 7.8 | 0.00 | 0.00 | 0.00 | 76 | 1012.2 |
| 20260505232513 | 51 | 70 | 3.5 | 9.6 | 0.00 | 0.00 | 0.00 | 75 | 1012.2 |
| 20260505231513 | 52 | 5 | 4.3 | 11.3 | 0.00 | 0.00 | 0.00 | 75 | 1012.2 |
| 20260505230943 | 52 | 70 | 4.3 | 9.6 | 0.00 | 0.00 | 0.00 | 75 | 1012.2 |
| 20260505230513 | 52 | 65 | 7.0 | 8.7 | 0.00 | 0.00 | 0.00 | 75 | 1012.1 |
| 20260505230013 | 52 | 26 | 8.7 | 11.3 | 0.00 | 0.00 | 0.00 | 75 | 1012.0 |
| 20260505225013 | 52 | 30 | 7.0 | 9.6 | 0.00 | 0.00 | 0.00 | 75 | 1012.0 |
| 20260505224513 | 52 | 16 | 7.0 | 9.6 | 0.00 | 0.00 | 0.00 | 75 | 1012.0 |
| 20260505224013 | 53 | 49 | 9.6 | 9.6 | 0.00 | 0.00 | 0.00 | 75 | 1012.1 |
| 20260505223013 | 53 | 55 | 7.8 | 9.6 | 0.00 | 0.00 | 0.00 | 75 | 1012.1 |
| 20260505222513 | 53 | 63 | 3.5 | 7.8 | 0.00 | 0.00 | 0.00 | 75 | 1012.0 |
| 20260505222013 | 53 | 46 | 3.5 | 7.8 | 0.00 | 0.00 | 0.00 | 75 | 1012.0 |
| 20260505221513 | 53 | 24 | 4.3 | 10.4 | 0.00 | 0.00 | 0.00 | 75 | 1012.0 |
| 20260505221013 | 54 | 59 | 1.7 | 10.4 | 0.00 | 0.00 | 0.00 | 75 | 1012.0 |
| 20260505215513 | 54 | 39 | 2.6 | 9.6 | 0.00 | 0.00 | 0.00 | 74 | 1012.0 |
| 20260505215013 | 54 | 47 | 3.5 | 9.6 | 0.00 | 0.00 | 0.00 | 74 | 1011.9 |
| 20260505214513 | 54 | 17 | 1.7 | 9.6 | 0.00 | 0.00 | 0.00 | 73 | 1011.9 |
| 20260505214013 | 54 | 36 | 1.7 | 6.1 | 0.00 | 0.00 | 0.00 | 73 | 1012.0 |
| 20260505213513 | 54 | 46 | 1.7 | 5.2 | 0.00 | 0.00 | 0.00 | 72 | 1011.9 |
| 20260505212513 | 54 | 32 | 1.7 | 5.2 | 0.00 | 0.00 | 0.00 | 72 | 1011.8 |
| 20260505212013 | 54 | 40 | 3.5 | 5.2 | 0.00 | 0.00 | 0.00 | 72 | 1011.8 |
| 20260505211513 | 54 | 32 | 2.6 | 5.2 | 0.00 | 0.00 | 0.00 | 72 | 1011.8 |
| 20260505211013 | 54 | 34 | 3.5 | 6.1 | 0.00 | 0.00 | 0.00 | 71 | 1011.8 |
| 20260505210513 | 54 | 37 | 5.2 | 6.1 | 0.00 | 0.00 | 0.00 | 71 | 1011.8 |
| 20260505210013 | 55 | 38 | 4.3 | 7.0 | 0.00 | 0.00 | 0.00 | 71 | 1011.8 |
| 20260505205513 | 55 | 28 | 3.5 | 7.0 | 0.00 | 0.00 | 0.00 | 71 | 1011.8 |
| 20260505205013 | 55 | 44 | 3.5 | 7.8 | 0.00 | 0.00 | 0.00 | 70 | 1011.8 |
| 20260505204013 | 55 | 32 | 3.5 | 7.8 | 0.00 | 0.00 | 0.00 | 70 | 1011.7 |
| 20260505203513 | 55 | 32 | 1.7 | 7.0 | 0.00 | 0.00 | 0.00 | 70 | 1011.6 |
| 20260505203013 | 55 | 40 | 2.6 | 7.0 | 0.00 | 0.00 | 0.00 | 70 | 1011.6 |
| 20260505202513 | 55 | 24 | 1.7 | 5.2 | 0.00 | 0.00 | 0.00 | 70 | 1011.5 |
| 20260505202013 | 55 | 15 | 2.6 | 7.0 | 0.00 | 0.00 | 0.00 | 70 | 1011.5 |
| 20260505201513 | 55 | 36 | 1.7 | 7.0 | 0.00 | 0.00 | 0.00 | 70 | 1011.5 |
| 20260505201013 | 55 | 28 | 3.5 | 7.0 | 0.00 | 0.00 | 0.00 | 69 | 1011.5 |
| 20260505200013 | 55 | 17 | 4.3 | 7.0 | 0.00 | 0.00 | 0.00 | 69 | 1011.5 |
| 20260505195513 | 56 | 15 | 3.5 | 7.0 | 0.00 | 0.00 | 0.00 | 69 | 1011.5 |
| 20260505195013 | 56 | 27 | 2.6 | 7.0 | 0.00 | 0.00 | 0.00 | 69 | 1011.4 |
| 20260505194513 | 56 | 29 | 4.3 | 8.7 | 0.00 | 0.00 | 0.00 | 69 | 1011.4 |
| 20260505194013 | 56 | 13 | 3.5 | 8.7 | 0.00 | 0.00 | 0.00 | 69 | 1011.4 |
| 20260505193013 | 56 | 11 | 4.3 | 7.8 | 0.00 | 0.00 | 0.00 | 68 | 1011.2 |
| 20260505192013 | 56 | 38 | 2.6 | 7.8 | 0.00 | 0.00 | 0.00 | 68 | 1011.1 |
| 20260505191513 | 56 | 50 | 3.5 | 8.7 | 0.00 | 0.00 | 0.00 | 68 | 1011.1 |
| 20260505191013 | 57 | 39 | 6.1 | 8.7 | 0.00 | 0.00 | 0.00 | 68 | 1011.1 |
| 20260505190513 | 57 | 43 | 7.8 | 8.7 | 0.00 | 0.00 | 0.00 | 68 | 1011.1 |
| 20260505190013 | 57 | 5 | 5.2 | 9.6 | 0.00 | 0.00 | 0.00 | 67 | 1011.1 |
| 20260505185513 | 57 | 16 | 2.6 | 10.4 | 0.00 | 0.00 | 0.00 | 67 | 1011.0 |
| 20260505185013 | 57 | 34 | 4.3 | 10.4 | 0.00 | 0.00 | 0.00 | 67 | 1011.0 |
| 20260505184513 | 57 | 12 | 3.5 | 9.6 | 0.00 | 0.00 | 0.00 | 67 | 1011.0 |
| 20260505184013 | 57 | 5 | 7.0 | 8.7 | 0.00 | 0.00 | 0.00 | 68 | 1010.9 |
| 20260505183513 | 57 | 9 | 6.1 | 7.0 | 0.00 | 0.00 | 0.00 | 68 | 1010.9 |
| 20260505182013 | 58 | 15 | 2.6 | 9.6 | 0.00 | 0.00 | 0.00 | 67 | 1010.9 |
| 20260505181513 | 58 | 42 | 2.6 | 11.3 | 0.00 | 0.00 | 0.00 | 67 | 1010.8 |
| 20260505180513 | 58 | 19 | 2.6 | 7.8 | 0.00 | 0.00 | 0.00 | 67 | 1010.9 |
| 20260505175513 | 58 | 5 | 4.3 | 10.4 | 0.00 | 0.00 | 0.00 | 67 | 1010.7 |
| 20260505175013 | 58 | 16 | 7.0 | 8.7 | 0.00 | 0.00 | 0.00 | 67 | 1010.7 |
| 20260505174513 | 58 | 31 | 5.2 | 9.6 | 0.00 | 0.00 | 0.00 | 67 | 1010.8 |
| 20260505174012 | 58 | 14 | 2.6 | 9.6 | 0.00 | 0.00 | 0.00 | 66 | 1010.8 |
| 20260505173013 | 58 | 13 | 1.7 | 10.4 | 0.00 | 0.00 | 0.00 | 67 | 1010.8 |
| 20260505172013 | 58 | 15 | 9.6 | 13.9 | 0.00 | 0.00 | 0.00 | 67 | 1010.9 |
| 20260505171513 | 59 | 355 | 10.4 | 13.9 | 0.00 | 0.00 | 0.00 | 67 | 1011.0 |
| 20260505170513 | 59 | 40 | 6.1 | 9.6 | 0.00 | 0.00 | 0.00 | 66 | 1011.0 |
| 20260505170013 | 59 | 31 | 2.6 | 9.6 | 0.00 | 0.00 | 0.00 | 65 | 1011.0 |
| 20260505165512 | 59 | 303 | 7.8 | 9.6 | 0.00 | 0.00 | 0.00 | 66 | 1010.9 |
| 20260505164513 | 59 | 33 | 7.0 | 9.6 | 0.00 | 0.00 | 0.00 | 66 | 1010.9 |
| 20260505164013 | 59 | 19 | 3.5 | 10.4 | 0.00 | 0.00 | 0.00 | 65 | 1010.9 |
| 20260505163513 | 59 | 12 | 1.7 | 10.4 | 0.00 | 0.00 | 0.00 | 66 | 1010.8 |
| 20260505163013 | 59 | 50 | 2.6 | 10.4 | 0.00 | 0.00 | 0.00 | 66 | 1010.8 |
| 20260505162513 | 59 | 41 | 3.5 | 9.6 | 0.00 | 0.00 | 0.00 | 66 | 1010.8 |
| 20260505160513 | 59 | 38 | 2.6 | 9.6 | 0.00 | 0.00 | 0.00 | 64 | 1010.9 |
| 20260505152513 | 60 | 42 | 1.7 | 9.6 | 0.00 | 0.00 | 0.00 | 66 | 1011.0 |
| 20260505152013 | 60 | 51 | 1.7 | 7.0 | 0.00 | 0.00 | 0.00 | 65 | 1011.0 |
| 20260505151512 | 60 | 11 | 2.6 | 7.0 | 0.00 | 0.00 | 0.00 | 64 | 1011.0 |
| 20260505151012 | 60 | 63 | 5.2 | 8.7 | 0.00 | 0.00 | 0.00 | 66 | 1011.1 |
| 20260505150512 | 60 | 32 | 3.5 | 9.6 | 0.00 | 0.00 | 0.00 | 66 | 1011.1 |
| 20260505140513 | 60 | 5 | 7.8 | 10.4 | 0.00 | 0.00 | 0.00 | 66 | 1011.4 |
| 20260505125012 | 60 | 46 | 6.1 | 9.6 | 0.00 | 0.00 | 0.00 | 69 | 1011.7 |
| 20260505124012 | 59 | 35 | 3.5 | 9.6 | 0.00 | 0.00 | 0.00 | 69 | 1011.6 |
| 20260505123512 | 59 | 53 | 8.7 | 9.6 | 0.00 | 0.00 | 0.00 | 69 | 1011.7 |
| 20260505123012 | 59 | 22 | 3.5 | 8.7 | 0.00 | 0.00 | 0.00 | 71 | 1011.6 |
| 20260505121513 | 58 | 41 | 5.2 | 7.8 | 0.00 | 0.00 | 0.00 | 71 | 1011.7 |
| 20260505121013 | 58 | 55 | 2.6 | 7.8 | 0.00 | 0.00 | 0.00 | 69 | 1011.7 |
| 20260505120513 | 58 | 360 | 7.0 | 7.8 | 0.00 | 0.00 | 0.00 | 69 | 1011.7 |
| 20260505120012 | 59 | 82 | 1.7 | 12.2 | 0.00 | 0.00 | 0.00 | 69 | 1011.7 |
| 20260505115512 | 59 | 355 | 3.5 | 13.9 | 0.00 | 0.00 | 0.00 | 68 | 1011.7 |
| 20260505115012 | 59 | 66 | 7.8 | 13.9 | 0.00 | 0.00 | 0.00 | 68 | 1011.7 |
| 20260505114512 | 59 | 30 | 7.0 | 12.2 | 0.00 | 0.00 | 0.00 | 67 | 1011.7 |
| 20260505114012 | 59 | 36 | 0.0 | 11.3 | 0.00 | 0.00 | 0.00 | 69 | 1011.7 |
| 20260505113512 | 59 | 28 | 9.6 | 9.6 | 0.00 | 0.00 | 0.00 | 69 | 1011.8 |
| 20260505113012 | 59 | 360 | 2.6 | 10.4 | 0.00 | 0.00 | 0.00 | 69 | 1011.8 |
| 20260505112514 | 58 | 36 | 6.1 | 11.3 | 0.00 | 0.00 | 0.00 | 70 | 1011.9 |
| 20260505112012 | 58 | 11 | 3.5 | 11.3 | 0.00 | 0.00 | 0.00 | 70 | 1011.8 |
| 20260505111512 | 59 | 25 | 7.0 | 11.3 | 0.00 | 0.00 | 0.00 | 71 | 1011.9 |
| 20260505111012 | 58 | 5 | 5.2 | 14.8 | 0.00 | 0.00 | 0.00 | 73 | 1012.0 |
| 20260505110513 | 57 | 75 | 7.0 | 14.8 | 0.00 | 0.00 | 0.00 | 73 | 1012.0 |
| 20260505102012 | 56 | 48 | 5.2 | 9.6 | 0.00 | 0.00 | 0.00 | 76 | 1012.4 |
| 20260505101512 | 56 | 61 | 4.3 | 7.8 | 0.00 | 0.00 | 0.00 | 77 | 1012.3 |
| 20260505101013 | 56 | 294 | 3.5 | 8.7 | 0.00 | 0.00 | 0.00 | 77 | 1012.3 |
| 20260505100513 | 55 | 25 | 3.5 | 8.7 | 0.00 | 0.00 | 0.00 | 77 | 1012.4 |
| 20260505100012 | 55 | 350 | 4.3 | 8.7 | 0.00 | 0.00 | 0.00 | 78 | 1012.3 |
| 20260505095012 | 56 | 58 | 4.3 | 8.7 | 0.00 | 0.00 | 0.00 | 76 | 1012.4 |
| 20260505094512 | 56 | 10 | 1.7 | 9.6 | 0.00 | 0.00 | 0.00 | 76 | 1012.5 |
| 20260505094013 | 57 | 26 | 3.5 | 9.6 | 0.00 | 0.00 | 0.00 | 75 | 1012.5 |
| 20260505093513 | 56 | 32 | 1.7 | 9.6 | 0.00 | 0.00 | 0.00 | 77 | 1012.5 |
| 20260505093012 | 55 | 22 | 5.2 | 9.6 | 0.00 | 0.00 | 0.00 | 79 | 1012.4 |
| 20260505092512 | 55 | 5 | 7.0 | 9.6 | 0.00 | 0.00 | 0.00 | 78 | 1012.4 |
| 20260505092012 | 55 | 13 | 4.3 | 9.6 | 0.00 | 0.00 | 0.00 | 79 | 1012.4 |
| 20260505091512 | 54 | 38 | 3.5 | 11.3 | 0.00 | 0.00 | 0.00 | 79 | 1012.4 |
| 20260505091012 | 54 | 42 | 2.6 | 11.3 | 0.00 | 0.00 | 0.00 | 79 | 1012.5 |
| 20260505090512 | 54 | 43 | 3.5 | 9.6 | 0.00 | 0.00 | 0.00 | 80 | 1012.5 |
| 20260505090012 | 53 | 27 | 8.7 | 10.4 | 0.00 | 0.00 | 0.00 | 81 | 1012.5 |
| 20260505085012 | 53 | 336 | 7.0 | 9.6 | 0.00 | 0.00 | 0.00 | 82 | 1012.5 |
| 20260505084513 | 53 | 332 | 3.5 | 9.6 | 0.00 | 0.00 | 0.00 | 83 | 1012.5 |
| 20260505083012 | 52 | 25 | 7.0 | 7.8 | 0.00 | 0.00 | 0.00 | 85 | 1012.6 |
| 20260505082512 | 52 | 5 | 5.2 | 9.6 | 0.00 | 0.00 | 0.00 | 85 | 1012.7 |
| 20260505082012 | 52 | 9 | 2.6 | 10.4 | 0.00 | 0.00 | 0.00 | 84 | 1012.8 |
| 20260505081012 | 52 | 20 | 1.7 | 7.8 | 0.00 | 0.00 | 0.00 | 85 | 1012.7 |
| 20260505080512 | 52 | 19 | 6.1 | 7.8 | 0.00 | 0.00 | 0.00 | 86 | 1012.7 |
| 20260505080012 | 52 | 14 | 6.1 | 7.8 | 0.00 | 0.00 | 0.00 | 87 | 1012.6 |
| 20260505075512 | 52 | 30 | 3.5 | 9.6 | 0.00 | 0.00 | 0.00 | 87 | 1012.6 |
| 20260505075012 | 52 | 32 | 4.3 | 9.6 | 0.00 | 0.00 | 0.00 | 87 | 1012.6 |
| 20260505074512 | 52 | 18 | 7.0 | 8.7 | 0.00 | 0.00 | 0.00 | 88 | 1012.6 |
| 20260505073512 | 51 | 11 | 6.1 | 11.3 | 0.00 | 0.00 | 0.00 | 89 | 1012.7 |
| 20260505073012 | 51 | 22 | 5.2 | 9.6 | 0.00 | 0.00 | 0.00 | 89 | 1012.7 |
| 20260505072512 | 51 | 43 | 4.3 | 8.7 | 0.00 | 0.00 | 0.00 | 90 | 1012.7 |
| 20260505071512 | 51 | 54 | 1.7 | 9.6 | 0.00 | 0.00 | 0.00 | 91 | 1012.7 |
| 20260505071012 | 50 | 19 | 1.7 | 9.6 | 0.00 | 0.00 | 0.00 | 92 | 1012.6 |
| 20260505070512 | 50 | 34 | 7.0 | 11.3 | 0.00 | 0.00 | 0.00 | 92 | 1012.6 |
| 20260505065512 | 50 | 45 | 6.1 | 11.3 | 0.00 | 0.00 | 0.00 | 92 | 1012.7 |
| 20260505065014 | 49 | 13 | 6.1 | 11.3 | 0.00 | 0.00 | 0.00 | 93 | 1012.7 |
| 20260505064512 | 49 | 29 | 3.5 | 11.3 | 0.00 | 0.00 | 0.00 | 93 | 1012.6 |
| 20260505064012 | 49 | 10 | 7.0 | 9.6 | 0.00 | 0.00 | 0.00 | 93 | 1012.6 |
| 20260505063512 | 49 | 323 | 7.0 | 8.7 | 0.00 | 0.00 | 0.00 | 93 | 1012.7 |
| 20260505063012 | 48 | 5 | 5.2 | 9.6 | 0.00 | 0.00 | 0.00 | 93 | 1012.5 |
| 20260505062512 | 48 | 5 | 1.7 | 9.6 | 0.00 | 0.00 | 0.00 | 92 | 1012.5 |
| 20260505061512 | 47 | 15 | 3.5 | 7.8 | 0.00 | 0.00 | 0.00 | 92 | 1012.5 |
| 20260505060512 | 47 | 12 | 2.6 | 6.1 | 0.00 | 0.00 | 0.00 | 92 | 1012.5 |
| 20260505055512 | 47 | 38 | 0.9 | 5.2 | 0.00 | 0.00 | 0.00 | 91 | 1012.6 |
| 20260505054512 | 46 | 291 | 0.9 | 4.3 | 0.00 | 0.00 | 0.00 | 91 | 1012.6 |
| 20260505054012 | 46 | 276 | 1.7 | 4.3 | 0.00 | 0.00 | 0.00 | 91 | 1012.7 |
| 20260505053512 | 46 | 335 | 1.7 | 3.5 | 0.00 | 0.00 | 0.00 | 91 | 1012.7 |
| 20260505053012 | 46 | 321 | 1.7 | 2.6 | 0.00 | 0.00 | 0.00 | 91 | 1012.7 |
| 20260505052512 | 46 | 334 | 0.0 | 2.6 | 0.00 | 0.00 | 0.00 | 90 | 1012.7 |
| 20260505052012 | 46 | 321 | 0.0 | 2.6 | 0.00 | 0.00 | 0.00 | 90 | 1012.7 |
| 20260505051512 | 46 | 20 | 0.0 | 0.9 | 0.00 | 0.00 | 0.00 | 90 | 1012.6 |
| 20260505051012 | 46 | 22 | 0.0 | 0.0 | 0.00 | 0.00 | 0.00 | 90 | 1012.7 |
| 20260505050512 | 46 | 22 | 0.0 | 0.0 | 0.00 | 0.00 | 0.00 | 90 | 1012.7 |
| 20260505041512 | 47 | 18 | 3.5 | 7.0 | 0.00 | 0.00 | 0.00 | 90 | 1012.9 |
| 20260505041011 | 48 | 9 | 2.6 | 7.0 | 0.00 | 0.00 | 0.00 | 90 | 1013.0 |
| 20260505040512 | 48 | 10 | 0.9 | 4.3 | 0.00 | 0.00 | 0.00 | 89 | 1013.0 |
| 20260505040012 | 48 | 5 | 2.6 | 4.3 | 0.00 | 0.00 | 0.00 | 89 | 1012.9 |
| 20260505035512 | 48 | 5 | 2.6 | 4.3 | 0.00 | 0.00 | 0.00 | 90 | 1012.9 |
| 20260505035012 | 48 | 5 | 1.7 | 4.3 | 0.00 | 0.00 | 0.00 | 89 | 1013.0 |
| 20260505034512 | 48 | 28 | 0.9 | 2.6 | 0.00 | 0.00 | 0.00 | 89 | 1013.0 |
| 20260505034012 | 48 | 28 | 0.0 | 2.6 | 0.00 | 0.00 | 0.00 | 89 | 1013.0 |
| 20260505033511 | 48 | 29 | 0.0 | 3.5 | 0.00 | 0.00 | 0.00 | 89 | 1012.9 |
| 20260505033012 | 48 | 29 | 0.0 | 4.3 | 0.00 | 0.00 | 0.00 | 89 | 1012.9 |
| 20260505032512 | 48 | 29 | 0.0 | 4.3 | 0.00 | 0.00 | 0.00 | 89 | 1012.9 |
| 20260505032012 | 48 | 24 | 2.6 | 4.3 | 0.00 | 0.00 | 0.00 | 88 | 1012.9 |